^^
Meteo Knjazevac Station Historical Data
Daily Summary for March 12, 2021 Units:  Metric    English   Both
Daily Weekly Monthly Yearly Custom
  High: Low: Average:
Temperature: 0.2 °C -0.3 °C 0 °C
Dew Point: 0.1 °C -0.4 °C -0.2 °C
Humidity: 99% 99% 99%
Wind Speed: 9.7km/h 1.6km/h 5.8km/h
Wind Gust: 24.1km/h - -
Wind- - SSW
Pressure: 1019.5 hPa 1016.8 hPa -
Precipitation: 0 mm    
Historical Graphs
 
 
Tabular Data for March 12, 2021
Time Temperature Dew Point Pressure Wind Wind Speed Wind Gust Humidity Rainfall Rate (Hourly) solar Conditions
00:00 0.1 °C -0.1 °C 1019.2 hPa North 3.2 km/h 12.9 km/h 99% 0 mm 0 W/m2
00:10 0.1 °C -0.1 °C 1019.2 hPa North 9.7 km/h 16.1 km/h 99% 0 mm 0 W/m2
00:20 0.1 °C -0.1 °C 1019.2 hPa North 8 km/h 14.5 km/h 99% 0 mm 0 W/m2
00:30 0.2 °C 0.1 °C 1019.2 hPa North 9.7 km/h 14.5 km/h 99% 0 mm 0 W/m2
00:40 0.1 °C -0.1 °C 1019.2 hPa North 9.7 km/h 17.7 km/h 99% 0 mm 0 W/m2
00:50 0.1 °C -0.1 °C 1019.2 hPa North 3.2 km/h 16.1 km/h 99% 0 mm 0 W/m2
01:00 0.1 °C -0.1 °C 1019.2 hPa North 4.8 km/h 17.7 km/h 99% 0 mm 0 W/m2
01:10 0.1 °C -0.1 °C 1019.2 hPa North 9.7 km/h 17.7 km/h 99% 0 mm 0 W/m2
01:20 0.1 °C -0.1 °C 1019.2 hPa North 4.8 km/h 20.9 km/h 99% 0 mm 0 W/m2
01:30 0.1 °C -0.1 °C 1019.5 hPa North 3.2 km/h 14.5 km/h 99% 0 mm 0 W/m2
01:40 0.1 °C -0.1 °C 1019.2 hPa North 3.2 km/h 20.9 km/h 99% 0 mm 0 W/m2
01:50 0.1 °C -0.1 °C 1018.8 hPa North 3.2 km/h 9.7 km/h 99% 0 mm 0 W/m2
02:00 0 °C -0.1 °C 1018.8 hPa North 1.6 km/h 12.9 km/h 99% 0 mm 0 W/m2
02:10 0 °C -0.1 °C 1018.8 hPa North 1.6 km/h 8 km/h 99% 0 mm 0 W/m2
02:20 0 °C -0.1 °C 1018.8 hPa North 4.8 km/h 11.3 km/h 99% 0 mm 0 W/m2
02:30 0 °C -0.1 °C 1018.5 hPa North 4.8 km/h 12.9 km/h 99% 0 mm 0 W/m2
02:40 0.1 °C -0.1 °C 1018.5 hPa North 3.2 km/h 14.5 km/h 99% 0 mm 0 W/m2
02:50 0.1 °C -0.1 °C 1018.5 hPa North 8 km/h 19.3 km/h 99% 0 mm 0 W/m2
03:00 0.1 °C -0.1 °C 1018.5 hPa North 9.7 km/h 19.3 km/h 99% 0 mm 0 W/m2
03:10 0.1 °C -0.1 °C 1018.5 hPa North 9.7 km/h 19.3 km/h 99% 0 mm 0 W/m2
03:20 0.1 °C -0.1 °C 1018.5 hPa North 4.8 km/h 14.5 km/h 99% 0 mm 0 W/m2
03:30 0 °C -0.1 °C 1018.5 hPa North 8 km/h 17.7 km/h 99% 0 mm 0 W/m2
03:40 0 °C -0.1 °C 1018.2 hPa North 4.8 km/h 20.9 km/h 99% 0 mm 0 W/m2
03:50 0 °C -0.1 °C 1018.2 hPa North 8 km/h 19.3 km/h 99% 0 mm 0 W/m2
04:00 0 °C -0.1 °C 1018.2 hPa North 8 km/h 17.7 km/h 99% 0 mm 0 W/m2
04:10 0 °C -0.1 °C 1017.8 hPa North 8 km/h 19.3 km/h 99% 0 mm 0 W/m2
04:20 0 °C -0.1 °C 1017.8 hPa North 8 km/h 24.1 km/h 99% 0 mm 0 W/m2
04:30 0 °C -0.1 °C 1017.8 hPa North 4.8 km/h 19.3 km/h 99% 0 mm 0 W/m2
04:40 0 °C -0.1 °C 1017.8 hPa North 4.8 km/h 16.1 km/h 99% 0 mm 0 W/m2
04:50 0 °C -0.1 °C 1017.8 hPa North 3.2 km/h 12.9 km/h 99% 0 mm 0 W/m2
05:00 -0.1 °C -0.2 °C 1017.5 hPa North 3.2 km/h 17.7 km/h 99% 0 mm 0 W/m2
05:10 -0.1 °C -0.2 °C 1017.5 hPa North 4.8 km/h 16.1 km/h 99% 0 mm 0 W/m2
05:20 -0.1 °C -0.2 °C 1017.5 hPa North 9.7 km/h 14.5 km/h 99% 0 mm 0 W/m2
05:30 -0.1 °C -0.2 °C 1017.5 hPa North 8 km/h 16.1 km/h 99% 0 mm 0 W/m2
05:40 -0.1 °C -0.2 °C 1017.5 hPa North 8 km/h 19.3 km/h 99% 0 mm 0 W/m2
05:50 -0.1 °C -0.2 °C 1017.5 hPa North 4.8 km/h 17.7 km/h 99% 0 mm 0 W/m2
06:00 -0.1 °C -0.2 °C 1017.5 hPa North 8 km/h 14.5 km/h 99% 0 mm 0 W/m2
06:10 -0.2 °C -0.3 °C 1017.5 hPa North 8 km/h 14.5 km/h 99% 0 mm 0 W/m2
06:20 -0.2 °C -0.3 °C 1017.5 hPa North 4.8 km/h 16.1 km/h 99% 0 mm 0 W/m2
06:30 -0.2 °C -0.3 °C 1017.5 hPa NNW 3.2 km/h 12.9 km/h 99% 0 mm 0 W/m2
06:40 -0.3 °C -0.4 °C 1017.2 hPa North 4.8 km/h 19.3 km/h 99% 0 mm 0 W/m2
06:50 -0.3 °C -0.4 °C 1017.2 hPa North 4.8 km/h 17.7 km/h 99% 0 mm 0 W/m2
07:00 -0.3 °C -0.4 °C 1017.2 hPa NNW 4.8 km/h 11.3 km/h 99% 0 mm 0 W/m2
07:10 -0.3 °C -0.4 °C 1017.2 hPa NNW 1.6 km/h 12.9 km/h 99% 0 mm 2 W/m2
07:20 -0.3 °C -0.4 °C 1017.2 hPa North 4.8 km/h 12.9 km/h 99% 0 mm 3 W/m2
07:30 -0.3 °C -0.4 °C 1016.8 hPa North 4.8 km/h 14.5 km/h 99% 0 mm 5 W/m2
Knjazevac, Serbia
Compliments of Weather Underground - 2 mb